QPF
0.00 0.00 0.00 0.00 0.00 0.00 0.00 0.00 0.01 0.01 0.01 0.01 0.01 0.01 0.01 0.01 0.01 0.02 0.02 0.02 0.03 0.05 0.07 0.11 0.15 0.21 0.27 0.30 0.32 0.29 0.25 0.21 0.21 0.20 0.21 0.18 0.09 0.04 0.02 0.02 0.01 0.00 0.00
0.00 0.00 0.00 0.00 0.00 0.00 0.00 0.01 0.01 0.01 0.01 0.01 0.01 0.01 0.01 0.01 0.01 0.02 0.02 0.02 0.02 0.02 0.04 0.06 0.08 0.14 0.21 0.27 0.32 0.32 0.30 0.29 0.27 0.28 0.28 0.24 0.17 0.10 0.06 0.03 0.01 0.00 0.00
0.00 0.00 0.00 0.01 0.01 0.01 0.01 0.01 0.01 0.02 0.02 0.02 0.02 0.03 0.02 0.02 0.02 0.02 0.02 0.02 0.02 0.02 0.02 0.04 0.06 0.08 0.12 0.19 0.27 0.31 0.31 0.30 0.31 0.31 0.32 0.31 0.23 0.15 0.09 0.04 0.02 0.01 0.00
0.00 0.00 0.01 0.01 0.01 0.01 0.01 0.01 0.01 0.02 0.03 0.03 0.03 0.04 0.04 0.04 0.03 0.03 0.03 0.04 0.04 0.03 0.02 0.02 0.04 0.07 0.10 0.13 0.17 0.24 0.30 0.33 0.37 0.35 0.34 0.32 0.26 0.21 0.12 0.06 0.03 0.01 0.00
0.01 0.01 0.01 0.01 0.01 0.01 0.01 0.02 0.02 0.02 0.02 0.03 0.04 0.05 0.05 0.05 0.03 0.03 0.05 0.05 0.06 0.06 0.04 0.03 0.02 0.03 0.06 0.10 0.15 0.20 0.26 0.29 0.34 0.37 0.36 0.34 0.26 0.20 0.13 0.08 0.04 0.02 0.00
0.01 0.01 0.01 0.01 0.01 0.01 0.02 0.02 0.03 0.04 0.04 0.05 0.05 0.06 0.06 0.04 0.02 0.02 0.04 0.05 0.07 0.08 0.07 0.06 0.03 0.01 0.02 0.04 0.08 0.14 0.21 0.27 0.30 0.34 0.36 0.34 0.27 0.21 0.15 0.09 0.05 0.02 0.01
0.01 0.01 0.01 0.01 0.02 0.02 0.02 0.03 0.04 0.05 0.06 0.07 0.07 0.07 0.08 0.08 0.04 0.03 0.02 0.03 0.05 0.08 0.09 0.10 0.05 0.01 0.01 0.01 0.03 0.06 0.11 0.18 0.25 0.29 0.32 0.35 0.33 0.26 0.19 0.10 0.07 0.04 0.01
0.01 0.01 0.02 0.02 0.02 0.03 0.04 0.05 0.06 0.08 0.09 0.09 0.09 0.09 0.11 0.09 0.06 0.04 0.03 0.02 0.04 0.06 0.09 0.11 0.09 0.06 0.03 0.02 0.02 0.04 0.05 0.07 0.12 0.19 0.25 0.34 0.41 0.37 0.27 0.18 0.12 0.08 0.03
0.01 0.02 0.02 0.02 0.03 0.04 0.04 0.05 0.08 0.09 0.09 0.10 0.11 0.12 0.13 0.12 0.10 0.05 0.03 0.04 0.06 0.07 0.08 0.09 0.09 0.08 0.05 0.02 0.02 0.04 0.06 0.06 0.07 0.11 0.19 0.28 0.38 0.42 0.37 0.27 0.19 0.11 0.03
0.02 0.02 0.02 0.03 0.04 0.05 0.06 0.07 0.08 0.10 0.10 0.11 0.11 0.14 0.15 0.16 0.15 0.05 0.03 0.05 0.08 0.10 0.12 0.12 0.09 0.10 0.07 0.02 0.02 0.04 0.05 0.07 0.07 0.07 0.10 0.18 0.26 0.34 0.34 0.27 0.21 0.13 0.04
0.01 0.02 0.02 0.04 0.05 0.05 0.07 0.09 0.10 0.11 0.12 0.12 0.13 0.15 0.17 0.16 0.14 0.05 0.03 0.05 0.09 0.12 0.13 0.14 0.12 0.07 0.03 0.02 0.02 0.03 0.04 0.07 0.11 0.11 0.11 0.14 0.21 0.26 0.29 0.25 0.21 0.16 0.07
0.01 0.02 0.03 0.04 0.04 0.05 0.08 0.10 0.12 0.14 0.13 0.12 0.12 0.13 0.16 0.17 0.13 0.07 0.02 0.03 0.07 0.14 0.16 0.16 0.15 0.10 0.04 0.02 0.01 0.01 0.01 0.04 0.09 0.14 0.14 0.15 0.17 0.19 0.25 0.23 0.17 0.16 0.10
0.02 0.02 0.03 0.04 0.06 0.08 0.10 0.11 0.13 0.15 0.14 0.12 0.12 0.13 0.15 0.18 0.15 0.05 0.01 0.01 0.02 0.09 0.17 0.19 0.16 0.09 0.05 0.03 0.01 0.01 0.00 0.02 0.07 0.11 0.12 0.13 0.17 0.17 0.20 0.24 0.17 0.15 0.14
0.03 0.03 0.03 0.04 0.06 0.09 0.11 0.12 0.13 0.14 0.12 0.11 0.12 0.13 0.15 0.17 0.17 0.11 0.05 0.02 0.01 0.03 0.08 0.12 0.11 0.08 0.04 0.02 0.01 0.01 0.01 0.02 0.05 0.08 0.11 0.13 0.17 0.21 0.20 0.17 0.14 0.11 0.11
0.02 0.03 0.03 0.04 0.07 0.08 0.10 0.12 0.10 0.09 0.06 0.05 0.07 0.09 0.12 0.14 0.12 0.10 0.10 0.09 0.06 0.05 0.09 0.13 0.12 0.09 0.04 0.03 0.02 0.02 0.02 0.02 0.05 0.09 0.12 0.15 0.15 0.17 0.18 0.16 0.12 0.09 0.07
0.03 0.03 0.03 0.04 0.06 0.08 0.10 0.13 0.09 0.05 0.03 0.02 0.02 0.02 0.05 0.05 0.03 0.01 0.02 0.03 0.03 0.03 0.07 0.14 0.14 0.13 0.08 0.04 0.04 0.04 0.04 0.03 0.04 0.09 0.13 0.15 0.15 0.14 0.14 0.15 0.13 0.10 0.07
0.04 0.04 0.03 0.04 0.07 0.09 0.11 0.14 0.14 0.09 0.05 0.03 0.01 0.01 0.01 0.01 0.00 0.00 0.00 0.01 0.01 0.01 0.06 0.13 0.14 0.14 0.11 0.07 0.05 0.04 0.05 0.06 0.06 0.09 0.14 0.16 0.17 0.14 0.11 0.12 0.12 0.11 0.08
0.03 0.03 0.03 0.06 0.09 0.09 0.09 0.10 0.12 0.12 0.11 0.08 0.04 0.01 0.00 0.00 0.00 0.00 0.01 0.01 0.01 0.01 0.04 0.11 0.13 0.13 0.11 0.09 0.06 0.05 0.07 0.10 0.09 0.11 0.15 0.18 0.18 0.14 0.12 0.12 0.11 0.11 0.09
0.03 0.03 0.02 0.05 0.07 0.07 0.06 0.06 0.09 0.09 0.10 0.10 0.07 0.03 0.01 0.01 0.00 0.00 0.01 0.03 0.04 0.03 0.04 0.08 0.11 0.11 0.09 0.08 0.08 0.08 0.09 0.12 0.11 0.11 0.17 0.20 0.18 0.15 0.13 0.12 0.12 0.12 0.10
0.02 0.02 0.01 0.03 0.05 0.05 0.05 0.06 0.07 0.09 0.09 0.10 0.09 0.06 0.03 0.02 0.02 0.01 0.01 0.04 0.08 0.07 0.06 0.07 0.08 0.09 0.10 0.08 0.09 0.09 0.10 0.13 0.13 0.12 0.17 0.23 0.20 0.17 0.15 0.13 0.13 0.11 0.08
0.01 0.02 0.02 0.03 0.04 0.04 0.04 0.05 0.07 0.09 0.10 0.09 0.07 0.04 0.03 0.06 0.08 0.07 0.05 0.06 0.09 0.09 0.09 0.08 0.07 0.08 0.08 0.07 0.08 0.09 0.09 0.11 0.14 0.13 0.16 0.22 0.23 0.22 0.21 0.17 0.15 0.12 0.08
0.02 0.03 0.03 0.03 0.03 0.02 0.03 0.05 0.07 0.08 0.09 0.09 0.07 0.04 0.02 0.04 0.09 0.10 0.10 0.08 0.08 0.09 0.08 0.07 0.06 0.06 0.06 0.06 0.05 0.07 0.09 0.10 0.13 0.15 0.15 0.21 0.25 0.26 0.27 0.22 0.17 0.14 0.10
0.02 0.02 0.02 0.02 0.02 0.02 0.02 0.04 0.05 0.05 0.05 0.06 0.07 0.07 0.05 0.05 0.07 0.08 0.08 0.07 0.08 0.08 0.07 0.06 0.06 0.05 0.06 0.05 0.05 0.06 0.08 0.08 0.10 0.14 0.16 0.20 0.25 0.26 0.26 0.22 0.19 0.15 0.11
0.01 0.02 0.01 0.01 0.02 0.02 0.02 0.03 0.04 0.03 0.03 0.03 0.04 0.05 0.05 0.06 0.06 0.06 0.07 0.06 0.06 0.07 0.07 0.06 0.05 0.05 0.05 0.06 0.06 0.08 0.09 0.08 0.09 0.14 0.17 0.19 0.21 0.23 0.22 0.19 0.19 0.14 0.11
0.01 0.02 0.02 0.02 0.03 0.04 0.05 0.05 0.05 0.04 0.04 0.04 0.03 0.03 0.05 0.05 0.06 0.07 0.07 0.06 0.05 0.06 0.06 0.06 0.06 0.06 0.06 0.06 0.06 0.08 0.08 0.08 0.11 0.15 0.19 0.20 0.19 0.19 0.17 0.14 0.14 0.12 0.10
0.00 0.01 0.02 0.02 0.04 0.05 0.05 0.06 0.05 0.04 0.05 0.06 0.06 0.04 0.05 0.05 0.06 0.07 0.07 0.07 0.08 0.09 0.07 0.06 0.06 0.06 0.06 0.06 0.06 0.06 0.06 0.08 0.11 0.15 0.17 0.18 0.16 0.15 0.13 0.11 0.10 0.09 0.07
MSLP
1010.29 1010.29 1010.32 1010.32 1010.26 1010.14 1009.93 1009.66 1009.36 1009.05 1008.76 1008.51 1008.32 1008.17 1008.07 1008.01 1007.99 1008.01 1008.07 1008.20 1008.40 1008.67 1009.00 1009.36 1009.73 1010.06 1010.31 1010.45 1010.48 1010.40 1010.23 1010.03 1009.83 1009.70 1009.66 1009.75 1009.97 1010.30 1010.72 1011.17 1011.63 1012.05 1012.40
1010.04 1009.97 1009.93 1009.88 1009.80 1009.65 1009.45 1009.20 1008.92 1008.64 1008.38 1008.15 1007.97 1007.82 1007.71 1007.63 1007.57 1007.54 1007.56 1007.62 1007.76 1007.96 1008.24 1008.56 1008.90 1009.22 1009.50 1009.70 1009.81 1009.83 1009.79 1009.72 1009.66 1009.64 1009.72 1009.90 1010.19 1010.57 1011.03 1011.51 1011.99 1012.43 1012.80
1009.83 1009.71 1009.61 1009.50 1009.36 1009.18 1008.95 1008.70 1008.43 1008.17 1007.94 1007.74 1007.58 1007.45 1007.34 1007.25 1007.16 1007.09 1007.05 1007.06 1007.12 1007.26 1007.46 1007.72 1008.02 1008.33 1008.62 1008.86 1009.05 1009.17 1009.25 1009.31 1009.38 1009.49 1009.68 1009.95 1010.31 1010.75 1011.24 1011.75 1012.26 1012.72 1013.11
1009.65 1009.48 1009.33 1009.15 1008.95 1008.72 1008.46 1008.19 1007.92 1007.67 1007.46 1007.28 1007.14 1007.03 1006.93 1006.83 1006.73 1006.63 1006.55 1006.50 1006.50 1006.57 1006.71 1006.92 1007.18 1007.47 1007.77 1008.05 1008.30 1008.51 1008.70 1008.87 1009.06 1009.28 1009.55 1009.89 1010.30 1010.77 1011.28 1011.81 1012.33 1012.82 1013.25
1009.48 1009.28 1009.07 1008.84 1008.57 1008.28 1007.97 1007.67 1007.38 1007.13 1006.92 1006.76 1006.63 1006.52 1006.43 1006.32 1006.21 1006.10 1005.99 1005.91 1005.87 1005.90 1006.00 1006.17 1006.41 1006.69 1007.00 1007.32 1007.63 1007.91 1008.18 1008.44 1008.71 1009.00 1009.33 1009.70 1010.13 1010.61 1011.12 1011.65 1012.17 1012.68 1013.15
1009.27 1009.05 1008.80 1008.51 1008.19 1007.83 1007.47 1007.12 1006.81 1006.54 1006.32 1006.15 1006.02 1005.91 1005.80 1005.69 1005.57 1005.45 1005.33 1005.24 1005.19 1005.21 1005.30 1005.48 1005.72 1006.02 1006.35 1006.70 1007.06 1007.40 1007.72 1008.03 1008.35 1008.67 1009.01 1009.39 1009.81 1010.26 1010.74 1011.24 1011.75 1012.27 1012.78
1008.99 1008.75 1008.47 1008.14 1007.76 1007.35 1006.94 1006.55 1006.20 1005.89 1005.65 1005.45 1005.30 1005.16 1005.04 1004.92 1004.79 1004.66 1004.54 1004.46 1004.44 1004.48 1004.60 1004.81 1005.09 1005.42 1005.80 1006.19 1006.58 1006.95 1007.31 1007.65 1007.97 1008.29 1008.62 1008.97 1009.34 1009.74 1010.17 1010.63 1011.12 1011.64 1012.18
1008.62 1008.37 1008.06 1007.69 1007.27 1006.82 1006.37 1005.94 1005.55 1005.21 1004.92 1004.69 1004.49 1004.32 1004.16 1004.01 1003.87 1003.74 1003.64 1003.59 1003.61 1003.71 1003.89 1004.15 1004.49 1004.88 1005.30 1005.74 1006.16 1006.56 1006.92 1007.26 1007.57 1007.87 1008.16 1008.46 1008.77 1009.12 1009.49 1009.91 1010.37 1010.88 1011.43
1008.17 1007.91 1007.58 1007.18 1006.72 1006.24 1005.76 1005.30 1004.87 1004.50 1004.17 1003.90 1003.65 1003.43 1003.24 1003.05 1002.89 1002.76 1002.69 1002.68 1002.75 1002.92 1003.17 1003.51 1003.92 1004.37 1004.84 1005.31 1005.75 1006.16 1006.53 1006.85 1007.14 1007.41 1007.66 1007.91 1008.17 1008.46 1008.79 1009.16 1009.59 1010.09 1010.66
1007.68 1007.39 1007.03 1006.60 1006.13 1005.63 1005.13 1004.65 1004.21 1003.81 1003.45 1003.13 1002.84 1002.58 1002.34 1002.13 1001.95 1001.83 1001.77 1001.81 1001.94 1002.17 1002.50 1002.91 1003.38 1003.88 1004.39 1004.88 1005.34 1005.74 1006.10 1006.40 1006.67 1006.91 1007.13 1007.35 1007.58 1007.84 1008.14 1008.49 1008.90 1009.39 1009.95
1007.19 1006.86 1006.46 1006.01 1005.51 1005.00 1004.50 1004.01 1003.57 1003.16 1002.79 1002.45 1002.13 1001.84 1001.57 1001.34 1001.16 1001.04 1001.01 1001.08 1001.26 1001.55 1001.93 1002.39 1002.90 1003.43 1003.95 1004.44 1004.89 1005.28 1005.62 1005.91 1006.16 1006.38 1006.59 1006.81 1007.04 1007.30 1007.60 1007.94 1008.35 1008.83 1009.39
1006.74 1006.35 1005.91 1005.41 1004.90 1004.38 1003.88 1003.41 1002.97 1002.58 1002.21 1001.88 1001.56 1001.26 1000.99 1000.76 1000.58 1000.48 1000.47 1000.57 1000.79 1001.10 1001.51 1001.99 1002.50 1003.03 1003.53 1004.00 1004.42 1004.78 1005.09 1005.36 1005.60 1005.83 1006.06 1006.30 1006.56 1006.85 1007.18 1007.55 1007.97 1008.45 1009.00
1006.34 1005.89 1005.38 1004.84 1004.30 1003.77 1003.28 1002.83 1002.42 1002.06 1001.73 1001.42 1001.14 1000.87 1000.62 1000.42 1000.26 1000.19 1000.20 1000.32 1000.55 1000.87 1001.27 1001.73 1002.21 1002.69 1003.14 1003.56 1003.92 1004.23 1004.51 1004.76 1005.01 1005.26 1005.52 1005.81 1006.13 1006.48 1006.86 1007.27 1007.72 1008.21 1008.75
1006.00 1005.46 1004.89 1004.30 1003.72 1003.18 1002.70 1002.27 1001.91 1001.59 1001.32 1001.07 1000.84 1000.63 1000.44 1000.28 1000.17 1000.13 1000.17 1000.30 1000.52 1000.82 1001.19 1001.59 1002.01 1002.41 1002.78 1003.12 1003.41 1003.66 1003.90 1004.13 1004.38 1004.66 1004.97 1005.32 1005.71 1006.13 1006.58 1007.05 1007.54 1008.05 1008.59
1005.69 1005.07 1004.43 1003.78 1003.17 1002.62 1002.14 1001.74 1001.42 1001.16 1000.95 1000.78 1000.63 1000.50 1000.38 1000.29 1000.23 1000.23 1000.29 1000.43 1000.63 1000.89 1001.20 1001.53 1001.85 1002.16 1002.44 1002.67 1002.88 1003.07 1003.26 1003.47 1003.72 1004.02 1004.38 1004.80 1005.27 1005.77 1006.30 1006.83 1007.37 1007.91 1008.45
1005.39 1004.70 1003.99 1003.29 1002.65 1002.08 1001.61 1001.23 1000.95 1000.75 1000.61 1000.51 1000.44 1000.39 1000.36 1000.34 1000.34 1000.38 1000.46 1000.60 1000.77 1000.98 1001.22 1001.46 1001.69 1001.89 1002.07 1002.21 1002.34 1002.46 1002.61 1002.79 1003.05 1003.37 1003.77 1004.25 1004.78 1005.36 1005.95 1006.56 1007.15 1007.72 1008.28
1005.07 1004.33 1003.58 1002.85 1002.18 1001.60 1001.13 1000.77 1000.52 1000.36 1000.28 1000.25 1000.25 1000.27 1000.31 1000.35 1000.40 1000.47 1000.57 1000.69 1000.83 1000.99 1001.16 1001.32 1001.46 1001.57 1001.65 1001.72 1001.78 1001.85 1001.96 1002.13 1002.37 1002.71 1003.15 1003.66 1004.25 1004.89 1005.55 1006.21 1006.86 1007.48 1008.06
1004.76 1004.00 1003.22 1002.48 1001.80 1001.21 1000.74 1000.39 1000.16 1000.03 999.98 999.99 1000.04 1000.11 1000.19 1000.27 1000.35 1000.44 1000.53 1000.64 1000.74 1000.86 1000.96 1001.05 1001.12 1001.16 1001.18 1001.19 1001.21 1001.24 1001.33 1001.49 1001.74 1002.09 1002.54 1003.09 1003.71 1004.39 1005.10 1005.81 1006.51 1007.17 1007.79
1004.47 1003.72 1002.95 1002.21 1001.54 1000.96 1000.49 1000.14 999.91 999.79 999.75 999.77 999.84 999.92 1000.01 1000.10 1000.18 1000.26 1000.34 1000.41 1000.48 1000.55 1000.60 1000.65 1000.67 1000.68 1000.67 1000.66 1000.66 1000.68 1000.77 1000.93 1001.18 1001.53 1001.99 1002.56 1003.20 1003.91 1004.65 1005.40 1006.13 1006.84 1007.50
1004.24 1003.52 1002.79 1002.09 1001.43 1000.87 1000.41 1000.06 999.82 999.68 999.63 999.63 999.68 999.74 999.80 999.87 999.92 999.96 1000.00 1000.04 1000.07 1000.10 1000.13 1000.15 1000.15 1000.15 1000.15 1000.14 1000.16 1000.20 1000.30 1000.48 1000.74 1001.09 1001.56 1002.12 1002.77 1003.48 1004.24 1005.01 1005.78 1006.51 1007.21
1004.11 1003.45 1002.77 1002.11 1001.49 1000.95 1000.50 1000.15 999.89 999.72 999.63 999.59 999.59 999.60 999.62 999.62 999.62 999.62 999.61 999.59 999.59 999.59 999.60 999.61 999.63 999.65 999.67 999.71 999.76 999.85 999.98 1000.17 1000.45 1000.81 1001.27 1001.82 1002.45 1003.16 1003.91 1004.69 1005.47 1006.23 1006.95
1004.08 1003.48 1002.87 1002.26 1001.68 1001.17 1000.73 1000.37 1000.10 999.90 999.76 999.66 999.60 999.54 999.49 999.43 999.36 999.29 999.23 999.17 999.13 999.11 999.11 999.13 999.18 999.24 999.31 999.40 999.51 999.65 999.82 1000.05 1000.34 1000.70 1001.14 1001.67 1002.28 1002.96 1003.69 1004.45 1005.22 1005.99 1006.72
1004.15 1003.60 1003.04 1002.48 1001.95 1001.46 1001.04 1000.68 1000.38 1000.15 999.97 999.82 999.69 999.57 999.44 999.32 999.18 999.06 998.94 998.84 998.77 998.74 998.75 998.80 998.88 998.98 999.12 999.27 999.44 999.63 999.85 1000.11 1000.41 1000.77 1001.19 1001.68 1002.25 1002.88 1003.57 1004.30 1005.04 1005.79 1006.51
1004.25 1003.75 1003.23 1002.72 1002.22 1001.76 1001.34 1000.98 1000.68 1000.42 1000.20 1000.01 999.83 999.66 999.48 999.30 999.12 998.95 998.79 998.67 998.59 998.55 998.57 998.65 998.77 998.93 999.12 999.33 999.56 999.81 1000.06 1000.34 1000.65 1000.99 1001.38 1001.83 1002.34 1002.91 1003.54 1004.21 1004.90 1005.60 1006.29
1004.35 1003.88 1003.39 1002.90 1002.42 1001.98 1001.58 1001.22 1000.91 1000.65 1000.41 1000.20 999.99 999.79 999.59 999.38 999.17 998.97 998.80 998.67 998.59 998.56 998.60 998.71 998.87 999.07 999.31 999.58 999.86 1000.14 1000.43 1000.72 1001.01 1001.33 1001.68 1002.07 1002.52 1003.01 1003.56 1004.15 1004.77 1005.41 1006.04
1004.40 1003.94 1003.47 1002.99 1002.53 1002.10 1001.71 1001.37 1001.07 1000.80 1000.57 1000.36 1000.15 999.95 999.74 999.53 999.32 999.13 998.96 998.83 998.76 998.76 998.82 998.95 999.15 999.39 999.68 999.98 1000.30 1000.60 1000.90 1001.19 1001.47 1001.76 1002.05 1002.38 1002.74 1003.15 1003.60 1004.10 1004.64 1005.20 1005.76
Thickness
5646 5642 5638 5634 5632 5629 5626 5625 5623 5622 5620 5619 5618 5617 5617 5617 5617 5617 5618 5621 5623 5625 5629 5633 5638 5644 5650 5656 5662 5667 5672 5677 5678 5688 5697 5701 5703 5704 5704 5706 5708 5709 5711
5639 5634 5630 5627 5624 5620 5618 5616 5614 5612 5610 5608 5606 5605 5604 5604 5604 5604 5605 5609 5611 5614 5617 5621 5626 5633 5639 5645 5651 5657 5662 5668 5671 5674 5682 5689 5692 5696 5697 5699 5701 5702 5702
5632 5627 5623 5619 5615 5611 5609 5606 5604 5601 5598 5596 5593 5591 5590 5590 5590 5591 5592 5594 5598 5602 5606 5610 5615 5620 5626 5633 5639 5646 5653 5660 5664 5666 5671 5678 5681 5686 5687 5690 5692 5693 5694
5624 5619 5614 5610 5607 5603 5600 5597 5593 5590 5587 5583 5581 5578 5577 5576 5576 5576 5577 5580 5584 5589 5594 5599 5604 5609 5615 5620 5628 5636 5643 5649 5655 5659 5662 5667 5671 5676 5679 5680 5681 5684 5686
5616 5611 5607 5603 5599 5596 5592 5588 5584 5579 5576 5572 5569 5566 5564 5562 5563 5564 5564 5566 5570 5575 5580 5586 5593 5598 5605 5611 5618 5625 5632 5638 5646 5651 5655 5659 5663 5667 5671 5673 5674 5676 5678
5609 5605 5601 5596 5593 5588 5584 5580 5575 5571 5566 5561 5557 5554 5552 5551 5553 5551 5550 5553 5557 5562 5567 5574 5580 5587 5593 5599 5607 5614 5621 5629 5635 5642 5648 5653 5659 5664 5667 5669 5668 5669 5669
5604 5599 5595 5590 5586 5581 5576 5572 5567 5561 5556 5551 5547 5544 5542 5540 5538 5537 5537 5539 5544 5550 5556 5561 5568 5578 5583 5589 5594 5601 5609 5618 5626 5634 5640 5648 5655 5660 5662 5663 5664 5666 5668
5599 5594 5589 5584 5580 5575 5569 5564 5558 5553 5547 5542 5539 5536 5533 5531 5529 5527 5527 5529 5534 5541 5547 5552 5556 5565 5574 5579 5585 5591 5599 5608 5617 5625 5635 5643 5649 5654 5658 5660 5661 5660 5662
5593 5588 5583 5578 5573 5568 5563 5557 5552 5546 5541 5536 5533 5530 5527 5525 5522 5520 5518 5521 5527 5533 5539 5544 5549 5555 5563 5570 5576 5584 5591 5599 5606 5616 5625 5634 5640 5646 5651 5652 5653 5653 5652
5589 5584 5578 5573 5568 5563 5558 5552 5547 5541 5536 5533 5530 5526 5523 5521 5519 5515 5512 5515 5520 5526 5531 5537 5542 5547 5552 5559 5567 5574 5581 5589 5598 5607 5615 5623 5631 5638 5644 5650 5652 5651 5650
5585 5580 5575 5570 5564 5560 5555 5549 5543 5538 5533 5529 5526 5523 5520 5518 5515 5512 5509 5511 5515 5519 5524 5529 5535 5539 5545 5551 5559 5566 5574 5582 5590 5598 5606 5615 5623 5631 5637 5644 5649 5650 5649
5582 5577 5572 5568 5563 5559 5552 5546 5540 5535 5530 5527 5523 5521 5518 5515 5512 5509 5506 5505 5509 5513 5517 5523 5528 5532 5538 5544 5551 5559 5566 5574 5583 5590 5598 5607 5617 5626 5632 5637 5642 5644 5648
5579 5575 5570 5566 5562 5556 5550 5544 5538 5533 5527 5523 5519 5517 5514 5512 5509 5506 5503 5501 5502 5506 5511 5516 5520 5525 5530 5536 5544 5552 5559 5567 5577 5584 5593 5602 5612 5620 5625 5628 5632 5636 5638
5577 5573 5569 5565 5561 5556 5549 5543 5536 5530 5525 5520 5516 5513 5511 5509 5507 5505 5503 5501 5499 5502 5507 5511 5515 5520 5525 5532 5539 5546 5554 5564 5572 5580 5589 5597 5605 5611 5617 5621 5623 5627 5628
5575 5572 5568 5564 5560 5554 5549 5542 5535 5528 5520 5514 5512 5509 5506 5505 5501 5499 5501 5503 5505 5507 5508 5510 5514 5518 5523 5531 5539 5546 5552 5559 5567 5575 5583 5591 5598 5603 5608 5613 5616 5619 5622
5574 5570 5567 5563 5560 5554 5549 5543 5535 5527 5519 5512 5505 5501 5502 5499 5497 5498 5499 5501 5504 5506 5509 5512 5516 5521 5526 5533 5540 5546 5552 5559 5566 5572 5579 5586 5592 5597 5601 5605 5608 5613 5617
5573 5570 5567 5563 5559 5554 5549 5544 5538 5531 5521 5514 5508 5504 5500 5498 5498 5498 5499 5501 5503 5506 5511 5515 5518 5523 5529 5535 5542 5549 5554 5560 5566 5571 5577 5582 5587 5592 5595 5599 5602 5606 5610
5574 5572 5568 5565 5560 5555 5550 5546 5540 5535 5529 5524 5514 5507 5504 5501 5500 5499 5499 5502 5508 5509 5516 5519 5523 5527 5532 5538 5544 5550 5556 5561 5565 5569 5574 5579 5583 5587 5591 5594 5598 5602 5606
5575 5573 5569 5566 5562 5557 5553 5548 5542 5537 5532 5527 5522 5515 5507 5504 5502 5501 5502 5509 5516 5519 5522 5525 5528 5532 5536 5541 5546 5552 5557 5561 5564 5567 5572 5577 5580 5584 5587 5591 5594 5596 5603
5575 5573 5570 5567 5564 5559 5554 5549 5544 5539 5535 5531 5527 5523 5518 5515 5515 5513 5513 5518 5522 5525 5528 5531 5534 5537 5540 5544 5548 5553 5557 5560 5563 5566 5570 5574 5578 5582 5585 5589 5592 5595 5600
5575 5574 5572 5569 5566 5561 5556 5551 5546 5541 5537 5534 5530 5526 5520 5523 5524 5524 5525 5526 5528 5530 5532 5535 5538 5541 5544 5547 5551 5554 5557 5560 5562 5565 5568 5572 5574 5578 5582 5586 5590 5593 5597
5575 5575 5573 5570 5567 5562 5557 5553 5548 5544 5540 5537 5534 5531 5526 5528 5530 5530 5530 5532 5534 5536 5537 5539 5542 5545 5548 5551 5554 5556 5557 5560 5562 5565 5567 5569 5573 5577 5581 5584 5587 5590 5594
5575 5575 5574 5571 5567 5563 5559 5555 5550 5547 5544 5541 5538 5536 5534 5533 5533 5533 5534 5535 5536 5538 5540 5542 5545 5547 5550 5553 5556 5558 5559 5561 5564 5566 5568 5570 5572 5575 5579 5583 5586 5588 5592
5575 5574 5573 5571 5568 5564 5561 5557 5553 5549 5546 5543 5541 5539 5537 5536 5535 5534 5534 5535 5537 5538 5541 5543 5545 5548 5550 5552 5555 5558 5560 5562 5564 5565 5567 5569 5571 5574 5578 5581 5584 5587 5591
5575 5574 5572 5570 5567 5564 5561 5559 5556 5552 5548 5545 5543 5541 5539 5538 5537 5535 5534 5535 5536 5538 5540 5542 5544 5547 5549 5551 5553 5555 5555 5558 5561 5564 5567 5569 5571 5574 5577 5579 5582 5586 5590
5573 5572 5571 5569 5567 5564 5562 5559 5556 5554 5551 5549 5546 5545 5542 5541 5539 5537 5536 5536 5537 5538 5540 5541 5543 5545 5547 5549 5549 5550 5552 5554 5558 5561 5564 5567 5570 5573 5576 5579 5583 5586 5589